Location: Firdgum
(53.2488°N, 5.5615°E)
Time: 03:04:05
(UTC+00:00)

Cosmos 407 Rocket - Pass Details

Date: 08 December 2019
Orbit: 743 x 787 km, 74.0° (Epoch: 25 January)

Event Time Altitude Azimuth Distance (km) Brightness Sun altitude
Exits shadow 04:29:52 39° 186° (S) 1,166 4.3 -26.8°
Drops below altitude 10° 04:33:17 10° 170° (S) 2,344 6.1 -26.3°
Sets 04:35:41 0° 167° (SSE) 3,269 7.0 -25.9°
